Santiago, Dominican Republic

2:59 AM AST on February 07, 2016 (GMT -0400)
Cibao International

Weather History for MDST - August, 2013

Change the Weather History Date:

Tuesday, August 27, 2013

  Actual Average Record
Temperature  
Mean Temperature 81 °F -  
Max Temperature 91 °F 92 °F 97 °F (2015)
Min Temperature 71 °F 71 °F 71 °F (2006)
Cooling Degree Days 16    
Growing Degree Days 31 (Base 50)    
Moisture  
Dew Point 73 °F    
Average Humidity 80    
Maximum Humidity 100    
Minimum Humidity 49    
Precipitation  
Precipitation 0.00 in 0.12 in - ()
Sea Level Pressure  
Sea Level Pressure 29.93 in    
Wind  
Wind Speed 4 mph ()    
Max Wind Speed 16 mph    
Max Gust Speed -    
Visibility 6.2 miles    
Events      
Averages and records for this station are not official NWS values.
T = Trace of Precipitation, MM = Missing Value Source: Averaged Metar Reports

Daily Weather History Graph

Daily Weather History Graph

Search for Another Location

Airport or City:

Trip Planner

Search our weather history database for the weather conditions in past years. The results will help you decide how hot, cold, wet, or windy it might be!

Date:

Astronomy

Aug. 27, 2013 Rise Set
Actual Time 6:26 AM AST 7:01 PM AST
Civil Twilight 6:04 AM AST 7:23 PM AST
Nautical Twilight 5:37 AM AST 7:50 PM AST
Astronomical Twilight 5:11 AM AST 8:16 PM AST
Moon 11:52 PM AST (8/27) 12:22 PM AST (8/27)
Length of Visible Light 13h 19m
Length of Day
12h 35m
Waning Gibbous, 57% of the Moon is Illuminated
Aug 27
Waning Gibbous
Aug 28
Last Quarter
Sep 5
New
Sep 12
First Quarter
Sep 19
Full

Hourly Weather History & Observations

Time (AST) Temp. Heat Index Dew Point Humidity Pressure Visibility Wind Dir Wind Speed Gust Speed Precip Events Conditions
12:00 AM 78.8 °F - 73.4 °F 83% - 6.2 mi Calm Calm - N/A   Scattered Clouds
1:00 AM 77.0 °F - 73.4 °F 89% 29.95 in 6.2 mi Variable 3.5 mph - N/A   Mostly Cloudy
2:00 AM 75.2 °F - 73.4 °F 94% 29.92 in 6.2 mi Calm Calm - N/A   Scattered Clouds
4:00 AM 75.2 °F - 73.4 °F 94% 29.92 in 6.2 mi Calm Calm - N/A   Scattered Clouds
5:00 AM 75.2 °F - 73.4 °F 94% 29.92 in 6.2 mi Calm Calm - N/A   Scattered Clouds
6:00 AM 75.2 °F - 73.4 °F 94% 29.92 in 6.2 mi Calm Calm - N/A   Scattered Clouds
7:00 AM 75.2 °F - 73.4 °F 94% 29.92 in 6.2 mi Calm Calm - N/A   Scattered Clouds
8:00 AM 75 °F - 74 °F 98% 29.96 in 6 mi Calm Calm - -   Haze
8:00 AM 75.2 °F - 75.2 °F 100% 29.95 in 6.2 mi Calm Calm - N/A   Partly Cloudy
9:00 AM 80.6 °F 86.2 °F 75.2 °F 84% 29.95 in 6.2 mi SSE 6.9 mph - N/A   Partly Cloudy
10:00 AM 84.2 °F 92.3 °F 75.2 °F 74% 29.98 in 6.2 mi SE 8.1 mph - N/A   Scattered Clouds
11:00 AM 85 °F - 74 °F 63% 29.99 in 6 mi ESE 4.6 mph - -   Haze
1:00 PM 89.6 °F 98.2 °F 73.4 °F 59% 29.92 in 6.2 mi SE 12.7 mph - N/A   Scattered Clouds
2:00 PM 90 °F - 73 °F 49% 29.90 in 6 mi ESE 15.7 mph - -   Haze
2:00 PM 89.6 °F 98.2 °F 73.4 °F 59% 29.89 in 6.2 mi ESE 16.1 mph - N/A   Scattered Clouds
3:00 PM 91.4 °F 102.5 °F 75.2 °F 59% 29.89 in 6.2 mi SE 16.1 mph - N/A   Scattered Clouds
4:00 PM 84.2 °F 90.9 °F 73.4 °F 70% 29.86 in 6.2 mi SE 16.1 mph - N/A   Scattered Clouds
5:00 PM 81 °F - 69 °F 59% 29.90 in 6 mi SE 13.4 mph - -   Haze
5:00 PM 80.6 °F 83.9 °F 69.8 °F 70% 29.89 in 6.2 mi SE 12.7 mph - N/A   Mostly Cloudy
6:00 PM 78.8 °F - 71.6 °F 78% 29.92 in 6.2 mi ESE 10.4 mph - N/A   Mostly Cloudy
7:00 PM 78.8 °F - 71.6 °F 78% 29.92 in 6.2 mi ESE 9.2 mph - N/A   Mostly Cloudy
8:00 PM 78 °F - 72 °F 77% 29.95 in 6 mi SE 4.6 mph - -   Haze
8:00 PM 78.8 °F - 71.6 °F 78% 29.95 in 6.2 mi SE 8.1 mph - N/A   Mostly Cloudy
9:00 PM 77.0 °F - 73.4 °F 89% 29.95 in 6.2 mi ESE 8.1 mph - N/A   Mostly Cloudy
10:00 PM 77.0 °F - 73.4 °F 89% 29.98 in 6.2 mi ESE 5.8 mph - N/A   Mostly Cloudy
11:00 PM 77 °F - 73 °F 85% 30.00 in 6 mi South 4.5 mph - -   Haze
11:00 PM 77.0 °F - 73.4 °F 89% 29.98 in - North - - N/A   Mostly Cloudy